GFSFLT2_con_lsi_276.txt.gz
Lid_Strength_Index
8 9 10 12 14 13 16 17 18 15 13 9 9 10 9 9 7 6 6 5 5 4 3 3 3 2 2 2 2 2 1 1
9 9 9 12 12 15 16 19 21 17 15 14 13 13 11 10 9 8 6 4 5 4 3 3 2 2 2 2 2 1 2 2
10 12 12 12 13 14 15 17 20 18 15 11 11 10 11 11 8 7 6 5 4 4 3 3 2 2 2 2 2 2 2 2
13 9 9 11 12 14 16 16 16 16 16 10 9 9 9 8 7 7 6 5 4 4 3 3 3 3 2 2 2 2 1 1
13 12 10 11 11 12 14 16 17 16 15 9 8 9 8 8 8 7 6 6 4 4 4 4 3 3 3 2 2 2 2 2
16 13 11 12 10 11 14 15 16 16 14 11 10 10 9 9 8 8 7 5 5 4 4 4 3 3 3 2 2 2 2 2
12 10 10 11 10 10 13 13 15 14 12 12 10 8 8 7 7 7 6 5 5 5 4 4 3 3 3 3 2 3 2 2
12 10 10 11 10 10 11 11 11 11 12 9 8 8 8 7 7 7 6 5 5 5 4 4 3 3 3 3 3 2 2 2
15 11 11 13 11 10 10 9 11 13 11 8 9 7 7 7 6 6 5 5 5 5 4 4 3 2 3 2 2 3 3 2
14 13 18 12 9 8 10 9 8 9 8 8 8 7 6 5 6 6 5 5 4 4 4 3 3 3 2 2 3 3 3 2
15 16 13 10 9 9 11 12 8 9 8 7 6 6 7 5 4 5 4 4 3 3 3 2 3 3 3 3 3 3 3 3
15 16 16 11 7 6 7 14 8 8 8 8 7 11 9 6 4 5 5 4 4 3 2 2 4 4 5 4 4 4 3 3
14 15 13 9 7 6 14 13 7 7 7 8 9 8 6 6 6 6 6 6 5 4 4 3 4 5 6 6 6 5 4 4
14 15 16 7 7 11 9 7 7 7 7 7 7 7 7 7 7 7 6 6 5 5 5 4 4 5 6 7 6 5 5 5
12 12 8 7 8 6 6 7 7 7 7 7 8 8 7 8 7 7 6 6 5 6 6 5 5 6 7 7 6 4 4 5
11 9 9 7 6 6 5 6 6 6 7 7 8 7 8 7 7 7 7 7 7 7 7 7 6 6 6 5 5 4 4 4
10 9 8 7 6 5 5 5 6 6 6 7 7 7 7 7 7 7 8 7 8 8 7 7 6 6 4 4 4 5 4 4
11 8 8 7 5 5 6 6 6 6 7 6 7 7 7 7 8 8 8 7 7 6 6 6 7 6 5 4 3 4 4 3
8 6 6 6 4 4 6 6 6 6 7 7 6 6 6 8 8 6 6 6 6 5 5 5 6 6 5 4 4 4 4 4

GFSFLT2_con_lsi_279.txt.gz
Lid_Strength_Index
8 10 11 13 15 14 17 18 17 16 12 9 11 9 8 8 7 7 6 5 5 4 3 3 3 2 2 2 2 2 1 1
9 10 11 12 12 16 17 19 22 16 16 14 13 12 10 10 9 7 5 5 4 4 3 3 2 2 2 2 2 2 2 2
11 13 14 13 13 15 16 18 20 19 17 10 11 11 11 10 9 9 7 6 5 4 3 3 2 3 2 2 2 2 1 1
14 11 10 12 14 15 16 17 19 18 17 10 9 9 9 9 9 8 6 5 5 5 5 4 3 2 3 2 2 2 1 1
14 12 10 11 11 15 16 17 18 19 17 10 10 9 9 9 9 8 6 5 5 5 5 4 3 3 3 2 2 2 1 2
16 14 12 12 11 12 14 16 17 17 13 12 10 10 10 9 8 7 5 5 6 6 6 5 4 3 3 3 3 2 2 2
13 11 11 11 11 11 14 14 15 13 13 12 10 10 9 7 7 7 8 7 7 7 7 6 5 4 3 3 2 2 2 3
13 10 10 12 11 11 12 12 12 11 12 10 9 9 9 8 7 8 7 6 6 6 5 5 5 5 4 3 2 1 2 2
16 12 12 14 12 11 11 10 10 13 11 9 9 8 8 8 7 8 7 6 6 5 5 5 4 3 3 3 3 2 2 2
15 14 18 13 8 8 10 9 9 9 9 8 8 8 7 7 8 7 7 7 7 6 6 5 4 3 3 3 3 3 3 3
16 17 15 11 9 10 11 12 8 9 8 7 7 7 7 7 7 8 8 8 8 7 7 6 5 4 4 5 5 5 5 4
16 17 18 12 8 7 8 14 8 8 8 8 8 12 10 7 7 7 7 7 7 6 5 6 5 4 5 5 6 6 5 5
15 16 14 9 7 7 14 12 7 7 7 8 9 8 7 7 7 7 7 6 6 6 6 6 5 5 6 6 6 5 5 5
16 16 16 7 8 11 9 8 7 7 6 7 7 8 8 8 8 7 7 7 6 7 7 6 6 6 6 6 5 4 5 4
13 13 9 8 8 7 6 7 7 7 7 7 8 9 8 8 8 7 7 7 6 7 6 6 6 6 7 6 5 5 5 5
11 10 9 8 7 6 6 6 6 6 7 8 9 8 8 8 8 8 7 6 6 7 6 7 6 6 6 6 5 5 5 5
11 9 8 7 6 6 6 6 6 7 8 8 8 8 8 8 7 7 7 6 7 7 6 6 6 6 6 5 5 5 5 5
11 9 8 8 6 5 6 6 7 7 7 7 7 8 7 8 7 7 8 7 7 6 5 5 5 5 5 5 5 5 4 4
9 8 7 6 5 4 6 6 7 7 7 7 6 7 8 7 7 6 6 5 6 5 4 5 5 5 5 4 4 5 5 4

GFSFLT2_con_lsi_285.txt.gz
Lid_Strength_Index
9 9 10 11 11 11 12 11 13 13 12 9 8 8 7 7 6 6 5 4 4 3 3 3 2 2 2 1 1 1 1 0
9 9 10 9 9 10 10 15 16 14 13 12 10 11 8 8 7 6 5 4 4 3 3 2 2 1 2 1 1 0 0 -0
8 9 9 9 9 11 10 12 15 16 13 9 11 10 9 8 7 6 5 5 4 3 4 4 4 4 3 3 3 1 0 0
9 8 8 8 9 9 10 12 11 12 12 9 10 8 7 7 8 8 8 8 7 7 6 5 5 6 5 4 3 2 1 -0
10 8 8 8 9 10 9 8 12 13 13 9 9 7 6 8 8 8 8 8 7 6 6 5 5 6 5 5 4 3 2 2
11 10 8 9 9 9 9 10 11 11 12 10 9 8 8 8 7 7 7 7 6 6 6 6 6 6 6 6 5 4 4 3
9 8 8 9 9 9 9 9 10 10 11 9 8 8 8 7 7 7 7 7 7 7 6 6 6 5 5 5 4 4 4 5
10 8 8 10 9 9 9 9 10 9 10 6 6 7 6 7 8 8 8 7 7 6 6 6 6 5 5 5 5 5 5 5
12 9 9 11 10 9 9 9 9 11 8 7 7 7 6 7 7 8 7 7 7 7 6 6 6 6 6 5 5 4 4 4
11 10 14 10 7 7 9 9 8 8 7 6 6 5 5 6 6 7 7 7 6 6 6 5 5 5 5 5 5 5 5 4
12 12 11 10 9 9 9 10 7 7 7 6 5 5 6 5 5 7 6 6 6 5 5 5 4 4 4 4 4 4 3 3
12 14 15 9 7 5 6 10 6 6 6 6 6 8 6 4 5 6 6 6 5 5 4 4 2 2 3 3 3 3 3 3
11 11 11 8 6 5 11 9 6 5 6 6 6 5 4 4 6 5 5 4 3 3 3 2 2 2 3 3 3 2 2 3
11 12 13 6 6 9 7 5 5 5 5 5 4 4 4 4 4 4 4 3 3 3 3 2 1 1 2 2 1 1 2 3
9 9 7 5 5 4 4 5 5 5 4 4 4 4 4 4 4 4 4 3 2 2 2 1 1 1 2 1 0 1 2 3
9 7 7 6 5 4 4 4 4 4 4 4 4 4 4 4 4 3 2 2 2 2 2 2 1 1 1 1 1 2 4 4
8 7 6 5 5 4 4 4 4 3 3 4 3 4 3 3 3 3 2 2 2 2 2 2 1 1 1 1 1 2 3 4
7 6 5 6 4 3 4 4 4 4 4 3 3 4 3 3 2 3 2 2 2 2 2 2 2 1 1 1 1 2 2 4
6 4 4 4 4 3 4 4 3 3 3 4 3 3 3 3 2 2 2 2 2 2 2 2 1 1 1 0 1 2 2 2

GFSFLT2_con_lsi_291.txt.gz
Lid_Strength_Index
5 5 5 7 8 6 8 8 10 9 9 8 6 7 6 5 5 4 4 4 4 3 3 2 2 2 2 1 1 2 0 -0
5 5 5 7 5 9 8 12 13 10 9 11 9 8 7 7 6 6 5 5 4 3 3 2 1 1 1 1 1 2 2 0
6 7 7 7 7 7 7 8 11 12 11 7 8 7 8 8 7 6 6 5 5 4 3 2 2 2 3 3 3 2 1 0
7 5 5 5 7 7 9 10 9 9 10 6 6 7 8 7 7 8 8 7 6 5 3 3 3 4 4 4 4 4 3 2
9 7 6 7 6 6 6 7 9 10 11 6 6 7 6 7 7 8 8 8 7 6 6 6 6 6 6 6 5 5 5 5
10 9 7 8 7 6 7 9 9 9 10 8 8 8 7 7 8 8 7 6 6 6 6 6 6 6 7 6 5 5 5 4
7 7 7 7 7 7 8 7 9 8 8 8 8 7 6 6 6 7 7 7 6 5 5 4 4 4 4 3 3 4 3 3
8 7 7 8 7 7 7 7 7 7 7 6 5 5 6 5 5 6 6 6 5 5 5 4 4 4 3 2 2 1 1 2
9 7 8 9 7 7 7 6 6 8 7 6 6 6 6 5 4 4 6 5 5 5 4 4 4 4 4 3 3 2 1 1
9 9 13 8 6 6 7 6 6 6 6 5 6 5 4 3 4 5 6 5 5 4 4 4 3 3 2 2 1 1 1 1
10 10 9 8 7 7 7 8 6 6 6 5 5 4 4 3 2 5 5 4 4 4 4 3 3 2 1 1 1 1 1 0
9 12 13 9 6 4 5 9 5 5 6 5 5 8 6 3 2 3 3 2 3 3 2 1 0 0 1 1 1 1 0 0
10 11 9 6 5 4 10 10 5 4 5 5 6 5 3 2 2 2 1 2 2 2 1 0 -0 0 1 1 1 0 -0 -0
9 10 12 4 5 8 6 4 4 4 4 4 4 3 3 3 2 2 2 2 1 1 1 0 0 0 1 1 -0 -0 -0 0
9 9 5 4 4 4 4 4 3 3 3 3 3 3 3 3 2 2 2 1 1 1 1 0 -0 -0 1 0 -0 -0 0 1
7 6 5 4 4 3 3 3 3 3 3 3 3 3 3 3 2 2 2 2 1 1 1 1 0 0 0 -0 -0 0 1 0
7 5 5 4 3 3 3 3 3 2 2 3 3 3 3 2 2 2 1 1 1 1 1 1 0 0 -0 -0 -0 1 1 0
7 5 5 4 3 3 3 3 3 3 3 2 2 2 2 2 1 1 1 1 1 1 1 1 0 0 -0 -0 -0 0 1 1
4 3 3 3 3 3 3 3 2 2 2 2 2 2 2 2 1 1 1 1 1 1 1 0 0 0 -0 -1 -0 0 1 1